Hourly Data Report for June 20, 2021

WESTERN HEAD
NOVA SCOTIA
Current Station Operator: ECCC - MSC

43°59'24.070" N
64°39'51.008" W
10.10 m
8206240
71411
WWE

Download Data

Hourly Data (June 2021)
Hourly Data Report for June 20, 2021
TIME
LST
Temp Definition
°C
Dew Point Definition
°C
Rel Hum Definition
%
Precip. Amount Definition
mm

Wind Dir Definition
10's deg

Wind Spd Definition
km/h
Visibility Definition
km
Stn Press Definition
kPa
Hmdx Definition


Wind Chill Definition


Weather Definition


00:00 10.6 LegendMM LegendMM 0.0 23 9   100.37     LegendNANA
01:00 11.6 LegendMM LegendMM 0.0 22 7   100.36     LegendNANA
02:00 11.1 LegendMM LegendMM 0.0 22 5   100.29     LegendNANA
03:00 9.8 LegendMM LegendMM 0.0 22 8   100.31     LegendNANA
04:00 10.9 LegendMM LegendMM 0.0 25 8   100.28     LegendNANA
05:00 11.3 LegendMM LegendMM 0.0 31 6   100.24     LegendNANA
06:00 11.9 LegendMM LegendMM 0.3 21 6   100.34     LegendNANA
07:00 11.0 LegendMM LegendMM 0.0 20 6   100.39     LegendNANA
08:00 11.2 LegendMM LegendMM 0.0 21 8   100.45     LegendNANA
09:00 11.8 LegendMM LegendMM 0.0 23 10   100.46     LegendNANA
10:00 12.0 LegendMM LegendMM 0.0 21 11   100.44     LegendNANA
11:00 14.1 LegendMM LegendMM 0.0 24 7   100.41     LegendNANA
12:00 14.9 LegendMM LegendMM 0.0 21 15   100.39     LegendNANA
13:00 14.5 14.5 100 0.0 25 10   100.38     LegendNANA
14:00 17.2 11.6 70 0.0 20 13   100.33     LegendNANA
15:00 28.9 11.8 35 0.0 26 20   100.30 31   LegendNANA
16:00 28.8 12.3 36 0.0 27 18   100.34 31   LegendNANA
17:00 27.0 10.7 36 0.0 26 23   100.39 29   LegendNANA
18:00 26.0 11.0 39 0.0 26 20   100.49 28   LegendNANA
19:00 23.2 12.2 50 0.0 25 17   100.58 26   LegendNANA
20:00 20.6 12.8 61 0.0 25 13   100.64     LegendNANA
21:00 11.9 9.4 85 0.0 23 7   100.74     LegendNANA
22:00 13.7 11.5 86 0.0 24 8   100.74     LegendNANA
23:00 11.6 9.6 87 0.0 23 5   100.77     LegendNANA

Notes on Data Quality.

Legend

  • E = Estimated
  • M = Missing
  • NA = Not Available*
  • [empty] = Indicates an unobserved value
Date modified: